Davenport, IA

1:28 PM CST on February 25, 2017 (GMT -0600)
Davenport Municipal

Weather History for KDVN - March, 2011

Change the Weather History Date:

Friday, March 18, 2011

  Actual Average Record
Temperature  
Mean Temperature 41 °F 39 °F  
Max Temperature 53 °F 49 °F 84 °F (2012)
Min Temperature 29 °F 29 °F 11 °F (1965)
Degree Days  
Heating Degree Days 24 26  
Month to date heating degree days 505 536  
Since 1 July heating degree days 5702 5561  
Cooling Degree Days 0 0  
Month to date cooling degree days 0 0  
Year to date cooling degree days 0 0  
Moisture  
Dew Point 32 °F    
Average Humidity 70    
Maximum Humidity 89    
Minimum Humidity 50    
Precipitation  
Precipitation 0.00 in 0.09 in 0.84 in (1952)
Month to date precipitation 1.11 1.41  
Year to date precipitation 3.59 3.94  
Snow  
Snow 0.00 in - - ()
Month to date snowfall T  
Since 1 July snowfall 51.4  
Snow Depth 0.00 in    
Sea Level Pressure  
Sea Level Pressure 30.25 in    
Wind  
Wind Speed 10 mph (NW)    
Max Wind Speed 20 mph    
Max Gust Speed 24 mph    
Visibility 10 miles    
Events      
T = Trace of Precipitation, MM = Missing Value Source: NWS Daily Summary

Daily Weather History Graph

Daily Weather History Graph

Search for Another Location

Airport or City:

Trip Planner

Search our weather history database for the weather conditions in past years. The results will help you decide how hot, cold, wet, or windy it might be!

Date:

Astronomy

Mar. 18, 2011 Rise Set
Actual Time 7:09 AM CDT 7:12 PM CDT
Civil Twilight 6:41 AM CDT 7:39 PM CDT
Nautical Twilight 6:09 AM CDT 8:12 PM CDT
Astronomical Twilight 5:36 AM CDT 8:45 PM CDT
Moon 6:20 PM CDT (3/18) 6:07 AM CDT (3/18)
Length of Visible Light 12h 57m
Length of Day
12h 02m
Waxing Gibbous, 98% of the Moon is Illuminated
Mar 18
Waxing Gibbous
Mar 19
Full
Mar 26
Last Quarter
Apr 3
New
Apr 11
First Quarter

Hourly Weather History & Observations

Time (CDT) Temp. Windchill Dew Point Humidity Pressure Visibility Wind Dir Wind Speed Gust Speed Precip Events Conditions
12:52 AM 44.1 °F 37.7 °F 37.0 °F 76% 30.07 in 10.0 mi NW 12.7 mph - N/A   Clear
1:52 AM 42.1 °F 36.1 °F 36.0 °F 79% 30.10 in 10.0 mi NW 10.4 mph - N/A   Clear
2:52 AM 41.0 °F 34.3 °F 35.1 °F 79% 30.12 in 10.0 mi NW 11.5 mph - N/A   Clear
3:52 AM 39.9 °F 34.5 °F 33.1 °F 77% 30.12 in 10.0 mi NW 8.1 mph - N/A   Clear
4:52 AM 37.0 °F 33.3 °F 30.9 °F 79% 30.12 in 10.0 mi NW 4.6 mph - N/A   Clear
5:52 AM 34.0 °F 27.2 °F 28.9 °F 82% 30.16 in 10.0 mi West 8.1 mph - N/A   Clear
6:52 AM 34.0 °F 28.0 °F 30.0 °F 85% 30.19 in 10.0 mi West 6.9 mph - N/A   Clear
7:52 AM 34.0 °F 28.0 °F 30.0 °F 85% 30.21 in 10.0 mi WNW 6.9 mph - N/A   Clear
8:52 AM 37.9 °F 32.1 °F 32.0 °F 79% 30.23 in 10.0 mi WNW 8.1 mph - N/A   Clear
9:52 AM 41.0 °F 36.4 °F 32.0 °F 70% 30.25 in 10.0 mi WNW 6.9 mph - N/A   Clear
10:52 AM 44.1 °F 38.6 °F 32.0 °F 63% 30.27 in 10.0 mi West 10.4 mph - N/A   Clear
11:52 AM 46.0 °F 38.8 °F 33.1 °F 61% 30.29 in 10.0 mi WNW 18.4 mph - N/A   Clear
12:52 PM 46.0 °F 39.0 °F 32.0 °F 58% 30.30 in 10.0 mi WNW 17.3 mph - N/A   Clear
1:52 PM 50.0 °F - 33.1 °F 52% 30.28 in 10.0 mi NW 16.1 mph - N/A   Clear
2:52 PM 48.9 °F - 34.0 °F 56% 30.28 in 10.0 mi NW 17.3 mph 23.0 mph N/A   Clear
3:52 PM 52.0 °F - 33.1 °F 49% 30.27 in 10.0 mi NW 13.8 mph - N/A   Clear
4:52 PM 48.9 °F - 33.1 °F 54% 30.30 in 10.0 mi NNW 13.8 mph - N/A   Clear
5:52 PM 48.0 °F - 33.1 °F 56% 30.31 in 10.0 mi WNW 10.4 mph - N/A   Clear
6:52 PM 46.0 °F 41.9 °F 30.9 °F 56% 30.32 in 10.0 mi NW 8.1 mph - N/A   Clear
7:52 PM 41.0 °F 37.1 °F 30.0 °F 65% 30.35 in 10.0 mi NW 5.8 mph - N/A   Clear
8:52 PM 37.9 °F 33.5 °F 30.0 °F 73% 30.36 in 10.0 mi WNW 5.8 mph - N/A   Clear
9:52 PM 37.0 °F 32.4 °F 30.0 °F 76% 30.38 in 10.0 mi NW 5.8 mph - N/A   Clear
10:52 PM 36.0 °F 29.6 °F 30.0 °F 79% 30.39 in 10.0 mi NW 8.1 mph - N/A   Clear
11:52 PM 32.0 °F 25.6 °F 27.0 °F 82% 30.40 in 10.0 mi NNW 6.9 mph - N/A   Clear